Powrót do katalogu

STARLINK-31819

AktywnyŁącznośćVLEO
NORAD 59738·PAYLOAD·🇺🇸 United States

Wystrzelony May 13, 2024 z Cape Canaveral Space Force Station

Loading…

Następne Przeloty (najbliższe 24 godziny)

TLE

ŚwieżeSource: CelesTrak SupGP

Epoka: Sep 15, 2026, 02:36 UTC

1 59738C 24090J   26258.10881944 -.00024190  00000+0 -87627-3 0  2583
2 59738  43.0024 193.7732 0001311 270.9853 287.4039 15.27586583    13

Śledź STARLINK-31819 w czasie rzeczywistym z AllMySat

Download on the App Store